Gadsden, AL

1:08 PM CST on February 21, 2018 (GMT -0600)
Gadsden Municipal

Weather History for KGAD - March, 2012

Change the Weather History Date:

Monday, March 19, 2012

  Actual Average Record
Temperature  
Mean Temperature 68 °F -  
Max Temperature 84 °F 62 °F 84 °F (2012)
Min Temperature 51 °F 38 °F 24 °F (1949)
Cooling Degree Days 2    
Growing Degree Days 18 (Base 50)    
Moisture  
Dew Point 54 °F    
Average Humidity 65    
Maximum Humidity 94    
Minimum Humidity 33    
Precipitation  
Precipitation 0.00 in - - ()
Sea Level Pressure  
Sea Level Pressure 30.14 in    
Wind  
Wind Speed 1 mph (SSW)    
Max Wind Speed 8 mph    
Max Gust Speed -    
Visibility 10 miles    
Events      
Averages and records for this station are not official NWS values.
T = Trace of Precipitation, MM = Missing Value Source: NWS Daily Summary

Daily Weather History Graph

Daily Weather History Graph

Search for Another Location

Airport or City:

Trip Planner

Search our weather history database for the weather conditions in past years. The results will help you decide how hot, cold, wet, or windy it might be!

Date:

Astronomy

Mar. 19, 2012 Rise Set
Actual Time 6:48 AM CDT 6:55 PM CDT
Civil Twilight 6:23 AM CDT 7:20 PM CDT
Nautical Twilight 5:54 AM CDT 7:49 PM CDT
Astronomical Twilight 5:25 AM CDT 8:19 PM CDT
Moon 4:53 AM CDT (3/19) 4:28 PM CDT (3/19)
Length of Visible Light 12h 56m
Length of Day
12h 06m
Waning Crescent, 8% of the Moon is Illuminated
Mar 19
Waning Crescent
Mar 22
New
Mar 30
First Quarter
Apr 6
Full
Apr 13
Last Quarter

Hourly Weather History & Observations

Time (CDT) Temp. Heat Index Dew Point Humidity Pressure Visibility Wind Dir Wind Speed Gust Speed Precip Events Conditions
12:15 AM 59.0 °F - 55.4 °F 88% 30.16 in 10.0 mi Calm Calm - N/A   Clear
12:35 AM 57.2 °F - 53.6 °F 88% 30.16 in 10.0 mi Calm Calm - N/A   Clear
12:55 AM 55.4 °F - 53.6 °F 94% 30.16 in 10.0 mi Calm Calm - N/A   Clear
1:15 AM 57.2 °F - 53.6 °F 88% 30.16 in 10.0 mi Calm Calm - N/A   Clear
1:35 AM 55.4 °F - 51.8 °F 88% 30.16 in 10.0 mi WSW 3.5 mph - N/A   Clear
1:55 AM 55.4 °F - 53.6 °F 94% 30.16 in 10.0 mi Calm Calm - N/A   Clear
2:15 AM 55.4 °F - 53.6 °F 94% 30.16 in 10.0 mi Calm Calm - N/A   Clear
2:35 AM 55.4 °F - 53.6 °F 94% 30.15 in 10.0 mi Calm Calm - N/A   Clear
2:55 AM 53.6 °F - 51.8 °F 94% 30.15 in 10.0 mi Calm Calm - N/A   Clear
3:15 AM 53.6 °F - 51.8 °F 94% 30.15 in 10.0 mi Calm Calm - N/A   Clear
3:35 AM 53.6 °F - 51.8 °F 94% 30.15 in 10.0 mi Calm Calm - N/A   Clear
3:55 AM 53.6 °F - 51.8 °F 94% 30.15 in 10.0 mi Calm Calm - N/A   Clear
4:15 AM 53.6 °F - 51.8 °F 94% 30.15 in 10.0 mi Calm Calm - N/A   Clear
4:35 AM 53.6 °F - 51.8 °F 94% 30.15 in 10.0 mi Calm Calm - N/A   Clear
4:55 AM 53.6 °F - 51.8 °F 94% 30.16 in 10.0 mi Calm Calm - N/A   Clear
5:35 AM 53.6 °F - 51.8 °F 94% 30.16 in 10.0 mi Calm Calm - N/A   Clear
5:55 AM 51.8 °F - 50.0 °F 94% 30.16 in 9.0 mi Calm Calm - N/A   Clear
6:15 AM 51.8 °F - 50.0 °F 94% 30.16 in 10.0 mi Calm Calm - N/A   Clear
6:35 AM 53.6 °F - 50.0 °F 88% 30.17 in 10.0 mi Calm Calm - N/A   Clear
7:15 AM 53.6 °F - 51.8 °F 94% 30.17 in 10.0 mi Calm Calm - N/A   Clear
7:35 AM 55.4 °F - 53.6 °F 94% 30.18 in 10.0 mi Calm Calm - N/A   Clear
7:55 AM 57.2 °F - 53.6 °F 88% 30.18 in 10.0 mi Calm Calm - N/A   Clear
8:35 AM 60.8 °F - 57.2 °F 88% 30.20 in 10.0 mi Calm Calm - N/A   Clear
8:55 AM 64.4 °F - 57.2 °F 77% 30.20 in 10.0 mi Calm Calm - N/A   Clear
9:15 AM 64.4 °F - 57.2 °F 77% 30.20 in 10.0 mi Calm Calm - N/A   Clear
9:35 AM 66.2 °F - 57.2 °F 73% 30.20 in 10.0 mi Calm Calm - N/A   Clear
9:55 AM 69.8 °F - 57.2 °F 64% 30.21 in 10.0 mi Calm Calm - N/A   Clear
10:15 AM 69.8 °F - 57.2 °F 64% 30.21 in 10.0 mi Calm Calm - N/A   Clear
10:35 AM 71.6 °F - 57.2 °F 60% 30.21 in 10.0 mi Calm Calm - N/A   Clear
10:55 AM 73.4 °F - 55.4 °F 53% 30.21 in 10.0 mi Calm Calm - N/A   Clear
11:15 AM 75.2 °F - 57.2 °F 53% 30.20 in 10.0 mi Calm Calm - N/A   Clear
11:35 AM 75.2 °F - 55.4 °F 50% 30.20 in 10.0 mi Calm Calm - N/A   Clear
11:55 AM 75.2 °F - 55.4 °F 50% 30.19 in 10.0 mi Calm Calm - N/A   Clear
12:15 PM 78.8 °F - 55.4 °F 44% 30.19 in 10.0 mi Calm Calm - N/A   Clear
12:35 PM 78.8 °F - 55.4 °F 44% 30.18 in 10.0 mi South 4.6 mph - N/A   Clear
12:55 PM 80.6 °F 80.3 °F 53.6 °F 39% 30.17 in 10.0 mi West 6.9 mph - N/A   Clear
1:15 PM 80.6 °F - 50.0 °F 34% 30.15 in 10.0 mi SSW 4.6 mph - N/A   Clear
1:35 PM 82.4 °F - 51.8 °F 35% 30.15 in 10.0 mi South 8.1 mph - N/A   Clear
1:55 PM 82.4 °F - 51.8 °F 35% 30.14 in 10.0 mi SSW 5.8 mph - N/A   Clear
2:15 PM 82.4 °F - 51.8 °F 35% 30.12 in 10.0 mi SSW 3.5 mph - N/A   Clear
2:35 PM 82.4 °F 81.4 °F 53.6 °F 37% 30.11 in 10.0 mi SSE 8.1 mph - N/A   Clear
2:55 PM 82.4 °F 81.4 °F 53.6 °F 37% 30.11 in 10.0 mi SE 6.9 mph - N/A   Clear
3:15 PM 84.2 °F - 51.8 °F 33% 30.10 in 10.0 mi Calm Calm - N/A   Clear
3:35 PM 82.4 °F 81.4 °F 53.6 °F 37% 30.09 in 10.0 mi Calm Calm - N/A   Partly Cloudy
3:55 PM 84.2 °F - 51.8 °F 33% 30.08 in 10.0 mi South 4.6 mph - N/A   Partly Cloudy
4:15 PM 82.4 °F - 51.8 °F 35% 30.08 in 10.0 mi South 8.1 mph - N/A   Clear
4:35 PM 82.4 °F 81.4 °F 53.6 °F 37% 30.07 in 10.0 mi SSW 6.9 mph - N/A   Clear
4:55 PM 82.4 °F 81.4 °F 53.6 °F 37% 30.07 in 10.0 mi South 5.8 mph - N/A   Clear
5:15 PM 80.6 °F 80.3 °F 53.6 °F 39% 30.07 in 10.0 mi SSW 3.5 mph - N/A   Clear
5:35 PM 80.6 °F 80.3 °F 53.6 °F 39% 30.07 in 10.0 mi South 3.5 mph - N/A   Clear
5:55 PM 80.6 °F 80.3 °F 53.6 °F 39% 30.07 in 10.0 mi Calm Calm - N/A   Clear
6:35 PM 78.8 °F - 51.8 °F 39% 30.07 in 10.0 mi South 3.5 mph - N/A   Clear
6:55 PM 78.8 °F - 51.8 °F 39% 30.07 in 10.0 mi South 3.5 mph - N/A   Clear
7:15 PM 75.2 °F - 53.6 °F 47% 30.07 in 10.0 mi Calm Calm - N/A   Clear
7:35 PM 71.6 °F - 55.4 °F 57% 30.07 in 10.0 mi Calm Calm - N/A   Clear
7:55 PM 69.8 °F - 55.4 °F 60% 30.08 in 10.0 mi Calm Calm - N/A   Clear
8:15 PM 69.8 °F - 55.4 °F 60% 30.08 in 10.0 mi Calm Calm - N/A   Clear
8:35 PM 69.8 °F - 53.6 °F 56% 30.08 in 10.0 mi Calm Calm - N/A   Clear
8:55 PM 66.2 °F - 55.4 °F 68% 30.08 in 10.0 mi Calm Calm - N/A   Clear
9:15 PM 66.2 °F - 55.4 °F 68% 30.08 in 10.0 mi Calm Calm - N/A   Clear
9:35 PM 64.4 °F - 55.4 °F 73% 30.09 in 10.0 mi Calm Calm - N/A   Clear
9:55 PM 64.4 °F - 55.4 °F 73% 30.09 in 10.0 mi Calm Calm - N/A   Clear
10:15 PM 64.4 °F - 55.4 °F 73% 30.08 in 10.0 mi Calm Calm - N/A   Clear
10:35 PM 62.6 °F - 55.4 °F 77% 30.08 in 10.0 mi Calm Calm - N/A   Clear
10:55 PM 62.6 °F - 55.4 °F 77% 30.08 in 10.0 mi Calm Calm - N/A   Clear
11:15 PM 62.6 °F - 55.4 °F 77% 30.08 in 10.0 mi Calm Calm - N/A   Clear
11:35 PM 62.6 °F - 55.4 °F 77% 30.07 in 10.0 mi Calm Calm - N/A   Clear
11:55 PM 62.6 °F - 55.4 °F 77% 30.07 in 10.0 mi Calm Calm - N/A   Clear